Tracking 28126 objects as of 1-Oct-2023
HD Live streaming from Space Station
objects crossing your sky now

STARLINK-5558

Track STARLINK-5558 now!
10-day predictions
STARLINK-5558 is classified as:


NORAD ID: 55631
Int'l Code: 2023-021D
Perigee: 577.0 km
Apogee: 581.4 km
Inclination: 70.0 °
Period: 96.1 minutes
Semi major axis: 6950 km
RCS: Unknown
Launch date: February 17, 2023
Source: United States (US)
Launch site: AIR FORCE WESTERN TEST RANGE (AFWTR)
Your satellite tracking list
Your tracking list is empty




NASA's NSSDC Master Catalog

Two Line Element Set (TLE):
1 55631U 23021D   23273.46521948  .00000380  00000-0  39646-4 0  9997
2 55631  69.9987 291.4579 0003183 270.2543  89.8251 14.98333205 34508
Source of the keplerian elements: AFSPC